Powrót do katalogu

SL-12 R/B(2)

AktywnyGEO
NORAD 26397·ROCKET BODY·🇷🇺 Russia

Wystrzelony Jul 4, 2000 z Baikonur Cosmodrome

Loading…

TLE

ŚwieżeSource: Space-Track

Epoka: Sep 14, 2026, 03:22 UTC

1 26397U 00036D   26257.14083037 -.00000265  00000-0  00000-0 0  9998
2 26397  14.0097   6.7076 0015887  81.5783 282.4596  1.00197182 48228

Śledź SL-12 R/B(2) w czasie rzeczywistym z AllMySat

Download on the App Store